TimeEST,TemperatureF,Dew PointF,Humidity,Sea Level PressureIn,VisibilityMPH,Wind Direction,Wind SpeedMPH,Gust SpeedMPH,PrecipitationIn,Events,Conditions,WindDirDegrees,DateUTC
12:54 AM,27.0,19.0,72,30.35,10.0,ENE,8.1,-,N/A,,Overcast,70,2012-11-30 05:54:00
1:54 AM,26.1,21.9,84,30.35,10.0,NE,9.2,-,N/A,,Overcast,50,2012-11-30 06:54:00
2:47 AM,26.6,23.0,86,30.35,6.0,ENE,10.4,-,N/A,,Overcast,70,2012-11-30 07:47:00
2:54 AM,26.1,23.0,88,30.38,6.0,East,9.2,-,N/A,,Overcast,80,2012-11-30 07:54:00
3:43 AM,26.6,23.0,86,30.34,6.0,East,10.4,-,N/A,,Overcast,80,2012-11-30 08:43:00
3:54 AM,26.1,23.0,88,30.38,7.0,ENE,10.4,-,N/A,,Overcast,70,2012-11-30 08:54:00
4:54 AM,27.0,21.9,81,30.37,10.0,East,11.5,-,N/A,,Overcast,80,2012-11-30 09:54:00
5:54 AM,27.0,21.0,78,30.37,10.0,ENE,11.5,-,N/A,,Overcast,70,2012-11-30 10:54:00
6:54 AM,27.0,19.9,75,30.37,10.0,East,12.7,19.6,N/A,,Overcast,80,2012-11-30 11:54:00
7:54 AM,27.0,19.9,75,30.39,2.5,East,10.4,18.4,0.00,Snow,Light Snow,80,2012-11-30 12:54:00
8:00 AM,26.6,21.2,80,30.35,1.8,East,12.7,-,0.00,Snow,Light Snow,80,2012-11-30 13:00:00
8:47 AM,26.6,23.0,86,30.35,0.8,East,9.2,-,0.02,Snow,Light Snow,80,2012-11-30 13:47:00
8:54 AM,26.1,23.0,88,30.39,0.8,East,10.4,-,0.03,Snow,Light Snow,80,2012-11-30 13:54:00
9:01 AM,26.6,23.0,86,30.35,0.5,East,9.2,-,0.00,Fog-Snow,Snow,80,2012-11-30 14:01:00
9:39 AM,26.6,24.8,93,30.35,0.5,East,11.5,-,0.04,Fog-Snow,Snow,90,2012-11-30 14:39:00
9:54 AM,27.0,24.1,89,30.39,1.0,East,13.8,-,0.05,Snow,Light Snow,90,2012-11-30 14:54:00
10:02 AM,26.6,24.8,93,30.35,1.2,East,8.1,18.4,0.00,Snow,Light Snow,90,2012-11-30 15:02:00
10:15 AM,26.6,24.8,93,30.35,2.0,East,9.2,-,0.00,Snow,Light Snow,90,2012-11-30 15:15:00
10:37 AM,28.4,23.0,80,30.36,3.0,East,10.4,20.7,0.01,Snow,Light Snow,80,2012-11-30 15:37:00
10:54 AM,28.0,23.0,81,30.39,4.0,East,12.7,-,0.01,Snow,Light Snow,80,2012-11-30 15:54:00
11:13 AM,28.4,23.0,80,30.36,2.0,East,13.8,-,0.00,Snow,Light Snow,80,2012-11-30 16:13:00
11:19 AM,28.4,23.0,80,30.36,1.5,East,13.8,-,0.00,Snow,Light Snow,80,2012-11-30 16:19:00
11:35 AM,28.4,24.8,86,30.35,1.2,East,12.7,-,0.00,Snow,Light Snow,80,2012-11-30 16:35:00
11:54 AM,28.0,24.1,85,30.38,2.5,East,10.4,-,0.01,Snow,Light Snow,90,2012-11-30 16:54:00
12:02 PM,28.4,24.8,86,30.34,4.0,ENE,12.7,17.3,0.00,Snow,Light Snow,70,2012-11-30 17:02:00
12:18 PM,28.4,24.8,86,30.34,2.5,ENE,9.2,-,0.00,Snow,Light Snow,70,2012-11-30 17:18:00
12:23 PM,28.4,24.8,86,30.33,2.5,ENE,12.7,-,0.00,Snow,Light Snow,70,2012-11-30 17:23:00
12:29 PM,28.4,24.8,86,30.33,3.0,ENE,8.1,-,0.00,Snow,Light Snow,60,2012-11-30 17:29:00
12:43 PM,28.4,24.8,86,30.33,2.0,ENE,9.2,-,0.00,Snow,Light Snow,70,2012-11-30 17:43:00
12:49 PM,28.4,26.6,93,30.33,1.5,East,6.9,-,0.00,Snow,Light Snow,80,2012-11-30 17:49:00
12:54 PM,28.9,26.1,89,30.37,0.8,ENE,11.5,-,0.00,Snow,Light Snow,70,2012-11-30 17:54:00
12:57 PM,28.4,26.6,93,30.33,0.5,ENE,8.1,-,0.00,Fog-Snow,Snow,70,2012-11-30 17:57:00
1:09 PM,28.4,26.6,93,30.33,1.2,East,8.1,-,0.01,Snow,Light Snow,80,2012-11-30 18:09:00
1:12 PM,28.4,26.6,93,30.33,1.5,ENE,8.1,-,0.01,Snow,Light Snow,70,2012-11-30 18:12:00
1:17 PM,28.4,26.6,93,30.32,3.0,ENE,8.1,-,0.01,Snow,Light Snow,70,2012-11-30 18:17:00
1:28 PM,30.2,26.6,86,30.32,5.0,ENE,9.2,-,0.01,Snow,Light Snow,60,2012-11-30 18:28:00
1:54 PM,30.0,26.1,85,30.35,9.0,East,11.5,-,0.01,,Overcast,90,2012-11-30 18:54:00
2:54 PM,30.9,25.0,79,30.34,10.0,East,11.5,-,N/A,,Overcast,90,2012-11-30 19:54:00
3:54 PM,30.9,26.1,82,30.35,10.0,East,10.4,-,N/A,,Overcast,90,2012-11-30 20:54:00
4:37 PM,30.2,26.6,86,30.31,10.0,East,12.7,-,N/A,,Overcast,90,2012-11-30 21:37:00
4:54 PM,30.9,27.0,85,30.35,10.0,East,12.7,-,N/A,,Overcast,90,2012-11-30 21:54:00
5:54 PM,30.9,28.0,89,30.35,5.0,East,12.7,-,0.00,,Overcast,100,2012-11-30 22:54:00
6:54 PM,30.9,27.0,85,30.37,10.0,East,16.1,-,0.00,,Overcast,90,2012-11-30 23:54:00
7:54 PM,30.9,27.0,85,30.39,10.0,East,9.2,-,N/A,,Overcast,80,2012-12-01 00:54:00
8:54 PM,30.9,28.0,89,30.37,10.0,East,10.4,-,N/A,,Overcast,100,2012-12-01 01:54:00
9:15 PM,30.2,28.4,93,30.33,10.0,East,8.1,-,N/A,,Overcast,90,2012-12-01 02:15:00
9:54 PM,32.0,28.0,85,30.36,10.0,East,9.2,-,N/A,,Overcast,80,2012-12-01 02:54:00
10:54 PM,32.0,28.9,88,30.32,10.0,East,8.1,-,N/A,,Overcast,100,2012-12-01 03:54:00
11:54 PM,33.1,28.9,85,30.33,10.0,ESE,8.1,-,N/A,,Overcast,110,2012-12-01 04:54:00